Regional Weather Roundup
Issued by NWS Albany, NY

Home | Current Version | Previous Version | Text Only | Print | Product List | Glossary On
Versions: 1 2 3 4 5 6 7 8 9 10 11 12 13 14 15 16 17 18 19 20 21 22 23 24 25 26 27 28 29 30 31 32 33 34 35 36 37 38 39 40 41 42 43 44 45 46 47 48 49 50
000
ASUS41 KALY 250310
RWRALY

NEW YORK STATE HOURLY WEATHER ROUNDUP
NATIONAL WEATHER SERVICE ALBANY NY
1100 PM EDT FRI MAR 24 2017

NOTE: "FAIR" INDICATES FEW OR NO CLOUDS BELOW 12,000 FEET WITH NO
SIGNIFICANT WEATHER AND/OR NO OBSTRUCTIONS TO VISIBILITY.

NYZ032-033-038>043-046>054-057>066-NYZ062>081-082-084-250400-
EAST


CITY           SKY/WX    TMP DP  RH WIND       PRES   REMARKS
ALBANY         CLOUDY    41  34  76 CALM      30.08R
GLENS FALLS    LGT RAIN  33  31  92 CALM      30.09S FOG
POUGHKEEPSIE   PTCLDY    35  30  82 CALM      30.10F
NEWBURGH       CLOUDY    45  36  70 SW6       30.11F
MONTGOMERY     PTCLDY    37  32  82 CALM      30.08F
WHITE PLAINS   CLOUDY    50  32  50 VRB5      30.11F
ISLIP          MOCLDY    43  39  86 SW7       30.14F
NEW YORK CITY  CLOUDY    55  32  41 SW14      30.13F
CENTRAL PARK   CLOUDY    53  32  44 VRB5      30.16F
$$

NYZ005>009-017-018-044>046-055-056-250400-
CENTRAL


CITY           SKY/WX    TMP DP  RH WIND       PRES   REMARKS
FULTON         CLOUDY    39  37  92 N6        30.07F FOG     WCI  35
SYRACUSE       CLOUDY    39  36  89 N5        30.08R
ROME           CLOUDY    36  35  96 NW3       30.09R
ELMIRA         CLOUDY    48  39  71 NE10      30.05R
BINGHAMTON     LGT RAIN  44  37  76 W3        30.05R
MONTICELLO     CLOUDY    34  34 100 CALM      30.08F
$$

NYZ026>034-041>043-087-250400-
NORTH


CITY           SKY/WX    TMP DP  RH WIND       PRES   REMARKS
WATERTOWN      LGT RAIN  36  36 100 NE7       30.10R FOG     WCI  30
FORT DRUM      NOT AVBL
MASSENA        LGT SNOW  33  32  96 CALM      30.12F FOG
SARANAC LAKE   LGT SNOW  33  33 100 CALM      30.02R FOG
PLATTSBURGH    LGT SNOW  32  32 100 CALM      30.10R FOG
$$

NYZ001>004-010>016-019>021-085-250400-
WEST


CITY           SKY/WX    TMP DP  RH WIND       PRES   REMARKS
NIAGARA FALLS  CLOUDY    46  38  73 NE9       30.10R
BUFFALO        CLOUDY    44  39  82 NE13      30.08R
DUNKIRK        CLOUDY    46  42  86 E5        30.07R
JAMESTOWN      PTCLDY    61  46  59 SW16      30.02F
WELLSVILLE     PTCLDY    62  48  60 SW9       30.05F
ROCHESTER      CLOUDY    43  38  82 E8        30.08S
PENN YAN       CLOUDY    45  38  76 N6        30.07R
$$

             KEY
       WCI = WIND CHILL INDEX
       VSB = VISIBILITY
       HX  = HEAT INDEX
$$



USA.gov is the U.S. government's official web portal to all federal, state and local government web resources and services.